Location: Bohy
(49.9380°N, 13.5753°E)
Time: 23:34:32
(UTC+00:00)

Cosmos 1975 - Pass Details

Date: 19 May 2025
Orbit: 487 x 505 km, 82.5° (Epoch: 22 June)

Event Time Altitude Azimuth Distance (km) Brightness Sun altitude
Rises 21:10:11 0° 359° (N) 2,577 7.4 -15.8°
Reaches altitude 10° 21:12:33 10° 12° (NNE) 1,688 6.1 -16.0°
Maximum altitude 21:15:42 26° 71° (ENE) 990 4.0 -16.2°
Enters shadow 21:16:52 22° 102° (ESE) 1,109 4.0 -16.3°
